This is the latest recevied weather packets stored in our database for station/object HS5XHC-1. If no packets are shown the sender has not sent any weather packets the latest 10 day(s).
| Time | Temp. | Humidity | Pressure | Rain* | Wind** | Luminosity | Snow |
|---|---|---|---|---|---|---|---|
| 1777849218 | 27.22° C | 54% | 968 hPa | - | - | 0 W/m² | - |
| 1777848594 | 27.78° C | 54% | 968 hPa | - | - | 0 W/m² | - |
| 1777847970 | 27.78° C | 54% | 968 hPa | - | - | 0 W/m² | - |
| 1777847345 | 27.78° C | 54% | 968 hPa | - | - | 0 W/m² | - |
| 1777846722 | 27.22° C | 54% | 968 hPa | - | - | 0 W/m² | - |
| 1777846097 | 27.78° C | 53% | 967 hPa | - | - | 0 W/m² | - |
| 1777845474 | 27.78° C | 54% | 967 hPa | - | - | 0 W/m² | - |
| 1777844849 | 27.78° C | 53% | 967 hPa | - | - | 0 W/m² | - |
| 1777844225 | 27.78° C | 54% | 967 hPa | - | - | 0 W/m² | - |
| 1777843602 | 26.67° C | 55% | 967 hPa | - | - | 0 W/m² | - |
| 1777842978 | 27.22° C | 55% | 967 hPa | - | - | 0 W/m² | - |
| 1777842354 | 26.67° C | 57% | 967 hPa | - | - | 0 W/m² | - |
| 1777841730 | 27.22° C | 54% | 967 hPa | - | - | 0 W/m² | - |
| 1777841106 | 27.78° C | 54% | 967 hPa | - | - | 0 W/m² | - |
| 1777840481 | 26.67° C | 57% | 967 hPa | - | - | 0 W/m² | - |
| 1777839857 | 26.67° C | 57% | 967 hPa | - | - | 0 W/m² | - |
| 1777839233 | 27.22° C | 55% | 967 hPa | - | - | 0 W/m² | - |
| 1777838610 | 27.78° C | 54% | 967 hPa | - | - | 0 W/m² | - |
| 1777838341 | 27.22° C | 54% | 967 hPa | - | - | 0 W/m² | - |
| 1777837717 | 27.78° C | 54% | 967 hPa | - | - | 0 W/m² | - |
| 1777837070 | 26.67° C | 57% | 966 hPa | - | - | 0 W/m² | - |
| 1777836447 | 27.22° C | 57% | 967 hPa | - | - | 0 W/m² | - |
| 1777835823 | 27.22° C | 55% | 967 hPa | - | - | 0 W/m² | - |
| 1777835199 | 27.22° C | 55% | 967 hPa | - | - | 0 W/m² | - |
| 1777834575 | 27.22° C | 57% | 967 hPa | - | - | 0 W/m² | - |
* Rain since midnight (hover to see other rain measurements)
** Current wind speed in m/s (hover to see current wind gust speed)